SOAP

operational
NORAD ID: 63263 Int'l Des: 2025-052 Owner: USPACE Country: F
LEOCIRCULARRETROGRADESSO

About SOAP

Description loading...

Live Position

Loading 3D Globe...

Upcoming Passes

Altitude History

Altitude vs Time

uPlot chart will show altitude changes over time

Two-Line Element Set

1 63263U 25052BF 25312.84444659 .00008023 00000-0 73884-3 0 9997
2 63263 97.7052 203.8751 0002966 33.9275 326.2135 14.94976936 35749
Epoch: Nov 8, 2025 • Age: 33 hours

Current Status

Altitude 587.4 km
Velocity 7.57 km/s
Sub-Earth Point 30.98°N, 95.62°W
Launch Date Mar 15, 2025
Age 0.6 years
Type other

Technical Details

Classification Payload
Mass 16.00 kg
Dry Mass 16.00 kg
Total Mass 16.00 kg
Length 0.30 m
Diameter 0.20 m
Span 1.50 m
Shape Box+2 pan
Manufacturer USPACE
Bus Type Cubesat 12U
Phase Status In Orbit
Owner/State USPACE/F

Large Constellations

Loading constellations...